Year,Month,Day,Hour,Minute,Value (Times are PST for temperature in C)
2007,07,15,00,00,17.90
2007,07,15,00,01,17.90
2007,07,15,00,02,17.90
2007,07,15,00,03,17.80
2007,07,15,00,04,17.80
2007,07,15,00,05,17.80
2007,07,15,00,06,17.80
2007,07,15,00,07,17.80
2007,07,15,00,08,17.80
2007,07,15,00,09,17.80
2007,07,15,00,10,17.80
2007,07,15,00,11,17.80
2007,07,15,00,12,17.80
2007,07,15,00,13,17.80
2007,07,15,00,14,17.80
2007,07,15,00,15,17.80
2007,07,15,00,16,17.80
2007,07,15,00,17,17.80
2007,07,15,00,18,17.80
2007,07,15,00,19,17.80
2007,07,15,00,20,17.80
2007,07,15,00,21,17.80
2007,07,15,00,22,17.80
2007,07,15,00,23,17.80
2007,07,15,00,24,17.80
2007,07,15,00,25,17.80
2007,07,15,00,26,17.80
2007,07,15,00,27,17.80
2007,07,15,00,28,17.80
2007,07,15,00,29,17.80
2007,07,15,00,30,17.80
2007,07,15,00,31,17.80
2007,07,15,00,32,17.80
2007,07,15,00,33,17.80
2007,07,15,00,34,17.90
2007,07,15,00,35,17.90
2007,07,15,00,36,17.90
2007,07,15,00,37,17.90
2007,07,15,00,38,17.90
2007,07,15,00,39,17.90
2007,07,15,00,40,17.90
2007,07,15,00,41,17.90
2007,07,15,00,42,17.90
2007,07,15,00,43,17.90
2007,07,15,00,44,17.90
2007,07,15,00,45,17.90
2007,07,15,00,46,17.90
2007,07,15,00,47,18.00
2007,07,15,00,48,18.10
2007,07,15,00,49,18.10
2007,07,15,00,50,18.10
2007,07,15,00,51,18.10
2007,07,15,00,52,18.10
2007,07,15,00,53,18.10
2007,07,15,00,54,18.20
2007,07,15,00,55,18.20
2007,07,15,00,56,18.20
2007,07,15,00,57,18.20
2007,07,15,00,58,18.20
2007,07,15,00,59,18.20
2007,07,15,01,00,18.20
2007,07,15,01,01,18.20
2007,07,15,01,02,18.20
2007,07,15,01,03,18.30
2007,07,15,01,04,18.30
2007,07,15,01,05,18.30
2007,07,15,01,06,18.30
2007,07,15,01,07,18.30
2007,07,15,01,08,18.30
2007,07,15,01,09,18.30
2007,07,15,01,10,18.30
2007,07,15,01,11,18.30
2007,07,15,01,12,18.40
2007,07,15,01,13,18.40
2007,07,15,01,14,18.40
2007,07,15,01,15,18.40
2007,07,15,01,16,18.40
2007,07,15,01,17,18.40
2007,07,15,01,18,18.40
2007,07,15,01,19,18.40
2007,07,15,01,20,18.50
2007,07,15,01,21,18.50
2007,07,15,01,22,18.50
2007,07,15,01,23,18.60
2007,07,15,01,24,18.60
2007,07,15,01,25,18.60
2007,07,15,01,26,18.60
2007,07,15,01,27,18.60
2007,07,15,01,28,18.60
2007,07,15,01,29,18.60
2007,07,15,01,30,18.60
2007,07,15,01,31,18.60
2007,07,15,01,32,18.60
2007,07,15,01,33,18.70
2007,07,15,01,34,18.70
2007,07,15,01,35,18.70
2007,07,15,01,36,18.70
2007,07,15,01,37,18.70
2007,07,15,01,38,18.70
2007,07,15,01,39,18.70
2007,07,15,01,40,18.70
2007,07,15,01,41,18.70
2007,07,15,01,42,18.70
2007,07,15,01,43,18.70
2007,07,15,01,44,18.80
2007,07,15,01,45,18.80
2007,07,15,01,46,18.80
2007,07,15,01,47,18.80
2007,07,15,01,48,18.80
2007,07,15,01,49,18.80
2007,07,15,01,50,18.80
2007,07,15,01,51,18.80
2007,07,15,01,52,18.80
2007,07,15,01,53,18.80
2007,07,15,01,54,18.80
2007,07,15,01,55,18.80
2007,07,15,01,56,18.90
2007,07,15,01,57,18.90
2007,07,15,01,58,18.90
2007,07,15,01,59,18.90
2007,07,15,02,00,18.90
2007,07,15,02,01,18.90
2007,07,15,02,02,19.00
2007,07,15,02,03,19.10
2007,07,15,02,04,19.10
2007,07,15,02,05,19.10
2007,07,15,02,06,19.10
2007,07,15,02,07,19.10
2007,07,15,02,08,19.20
2007,07,15,02,09,19.20
2007,07,15,02,10,19.20
2007,07,15,02,11,19.20
2007,07,15,02,12,19.20
2007,07,15,02,13,19.20
2007,07,15,02,14,19.20
2007,07,15,02,15,19.20
2007,07,15,02,16,19.20
2007,07,15,02,17,19.20
2007,07,15,02,18,19.20
2007,07,15,02,19,19.10
2007,07,15,02,20,19.10
2007,07,15,02,21,19.10
2007,07,15,02,22,19.10
2007,07,15,02,23,19.10
2007,07,15,02,24,19.10
2007,07,15,02,25,19.10
2007,07,15,02,26,19.10
2007,07,15,02,27,19.10
2007,07,15,02,28,19.10
2007,07,15,02,29,19.10
2007,07,15,02,30,19.10
2007,07,15,02,31,19.10
2007,07,15,02,32,19.10
2007,07,15,02,33,19.10
2007,07,15,02,34,19.10
2007,07,15,02,35,19.10
2007,07,15,02,36,19.10
2007,07,15,02,37,19.00
2007,07,15,02,38,18.90
2007,07,15,02,39,18.90
2007,07,15,02,40,18.90
2007,07,15,02,41,18.90
2007,07,15,02,42,18.90
2007,07,15,02,43,18.90
2007,07,15,02,44,18.90
2007,07,15,02,45,18.90
2007,07,15,02,46,18.90
2007,07,15,02,47,18.90
2007,07,15,02,48,18.90
2007,07,15,02,49,18.90
2007,07,15,02,50,18.90
2007,07,15,02,51,18.90
2007,07,15,02,52,18.90
2007,07,15,02,53,18.80
2007,07,15,02,54,18.80
2007,07,15,02,55,18.80
2007,07,15,02,56,18.80
2007,07,15,02,57,18.80
2007,07,15,02,58,18.80
2007,07,15,02,59,18.80
2007,07,15,03,00,18.70
2007,07,15,03,01,18.70
2007,07,15,03,02,18.70
2007,07,15,03,03,18.70
2007,07,15,03,04,18.70
2007,07,15,03,05,18.70
2007,07,15,03,06,18.70
2007,07,15,03,07,18.70
2007,07,15,03,08,18.70
2007,07,15,03,09,18.70
2007,07,15,03,10,18.70
2007,07,15,03,11,18.70
2007,07,15,03,12,18.70
2007,07,15,03,13,18.70
2007,07,15,03,14,18.80
2007,07,15,03,15,18.80
2007,07,15,03,16,18.80
2007,07,15,03,17,18.80
2007,07,15,03,18,18.70
2007,07,15,03,19,18.70
2007,07,15,03,20,18.70
2007,07,15,03,21,18.70
2007,07,15,03,22,18.70
2007,07,15,03,23,18.70
2007,07,15,03,24,18.70
2007,07,15,03,25,18.70
2007,07,15,03,26,18.70
2007,07,15,03,27,18.70
2007,07,15,03,28,18.70
2007,07,15,03,29,18.70
2007,07,15,03,30,18.70
2007,07,15,03,31,18.70
2007,07,15,03,32,18.70
2007,07,15,03,33,18.70
2007,07,15,03,34,18.70
2007,07,15,03,35,18.70
2007,07,15,03,36,18.70
2007,07,15,03,37,18.70
2007,07,15,03,38,18.70
2007,07,15,03,39,18.70
2007,07,15,03,40,18.70
2007,07,15,03,41,18.70
2007,07,15,03,42,18.70
2007,07,15,03,43,18.70
2007,07,15,03,44,18.70
2007,07,15,03,45,18.70
2007,07,15,03,46,18.70
2007,07,15,03,47,18.70
2007,07,15,03,48,18.70
2007,07,15,03,49,18.80
2007,07,15,03,50,18.80
2007,07,15,03,51,18.90
2007,07,15,03,52,18.90
2007,07,15,03,53,18.90
2007,07,15,03,54,18.90
2007,07,15,03,55,18.90
2007,07,15,03,56,18.90
2007,07,15,03,57,18.90
2007,07,15,03,58,18.90
2007,07,15,03,59,18.90
2007,07,15,04,00,18.90
2007,07,15,04,01,18.90
2007,07,15,04,02,18.90
2007,07,15,04,03,18.90
2007,07,15,04,04,18.80
2007,07,15,04,05,18.80
2007,07,15,04,06,18.80
2007,07,15,04,07,18.70
2007,07,15,04,08,18.70
2007,07,15,04,09,18.70
2007,07,15,04,10,18.70
2007,07,15,04,11,18.70
2007,07,15,04,12,18.60
2007,07,15,04,13,18.60
2007,07,15,04,14,18.60
2007,07,15,04,15,18.60
2007,07,15,04,16,18.50
2007,07,15,04,17,18.50
2007,07,15,04,18,18.50
2007,07,15,04,19,18.50
2007,07,15,04,20,18.40
2007,07,15,04,21,18.40
2007,07,15,04,22,18.40
2007,07,15,04,23,18.30
2007,07,15,04,24,18.30
2007,07,15,04,25,18.30
2007,07,15,04,26,18.30
2007,07,15,04,27,18.30
2007,07,15,04,28,18.20
2007,07,15,04,29,18.20
2007,07,15,04,30,18.20
2007,07,15,04,31,18.20
2007,07,15,04,32,18.20
2007,07,15,04,33,18.20
2007,07,15,04,34,18.20
2007,07,15,04,35,18.20
2007,07,15,04,36,18.20
2007,07,15,04,37,18.20
2007,07,15,04,38,18.20
2007,07,15,04,39,18.20
2007,07,15,04,40,18.20
2007,07,15,04,41,18.20
2007,07,15,04,42,18.20
2007,07,15,04,43,18.30
2007,07,15,04,44,18.30
2007,07,15,04,45,18.30
2007,07,15,04,46,18.30
2007,07,15,04,47,18.30
2007,07,15,04,48,18.40
2007,07,15,04,49,18.40
2007,07,15,04,50,18.40
2007,07,15,04,51,18.40
2007,07,15,04,52,18.40
2007,07,15,04,53,18.40
2007,07,15,04,54,18.40
2007,07,15,04,55,18.50
2007,07,15,04,56,18.50
2007,07,15,04,57,18.50
2007,07,15,04,58,18.50
2007,07,15,04,59,18.60
2007,07,15,05,00,18.70
2007,07,15,05,01,18.80
2007,07,15,05,02,19.00
2007,07,15,05,03,19.10
2007,07,15,05,04,19.30
2007,07,15,05,05,19.40
2007,07,15,05,06,19.60
2007,07,15,05,07,19.70
2007,07,15,05,08,19.80
2007,07,15,05,09,19.90
2007,07,15,05,10,19.90
2007,07,15,05,11,19.90
2007,07,15,05,12,19.90
2007,07,15,05,13,19.90
2007,07,15,05,14,19.80
2007,07,15,05,15,19.80
2007,07,15,05,16,19.70
2007,07,15,05,17,19.60
2007,07,15,05,18,19.50
2007,07,15,05,19,19.50
2007,07,15,05,20,19.40
2007,07,15,05,21,19.40
2007,07,15,05,22,19.40
2007,07,15,05,23,19.30
2007,07,15,05,24,19.30
2007,07,15,05,25,19.30
2007,07,15,05,26,19.20
2007,07,15,05,27,19.20
2007,07,15,05,28,19.10
2007,07,15,05,29,19.10
2007,07,15,05,30,19.10
2007,07,15,05,31,19.10
2007,07,15,05,32,19.10
2007,07,15,05,33,19.10
2007,07,15,05,34,19.00
2007,07,15,05,35,18.90
2007,07,15,05,36,18.90
2007,07,15,05,37,18.90
2007,07,15,05,38,18.90
2007,07,15,05,39,18.90
2007,07,15,05,40,18.90
2007,07,15,05,41,18.90
2007,07,15,05,42,18.90
2007,07,15,05,43,18.90
2007,07,15,05,44,18.90
2007,07,15,05,45,18.90
2007,07,15,05,46,18.90
2007,07,15,05,47,18.90
2007,07,15,05,48,18.90
2007,07,15,05,49,18.90
2007,07,15,05,50,18.90
2007,07,15,05,51,18.90
2007,07,15,05,52,18.90
2007,07,15,05,53,18.90
2007,07,15,05,54,18.90
2007,07,15,05,55,18.90
2007,07,15,05,56,18.90
2007,07,15,05,57,18.90
2007,07,15,05,58,18.90
2007,07,15,05,59,18.90
2007,07,15,06,00,18.90
2007,07,15,06,01,18.90
2007,07,15,06,02,18.90
2007,07,15,06,03,18.90
2007,07,15,06,04,18.90
2007,07,15,06,05,18.90
2007,07,15,06,06,18.90
2007,07,15,06,07,18.90
2007,07,15,06,08,18.90
2007,07,15,06,09,18.90
2007,07,15,06,10,18.90
2007,07,15,06,11,18.90
2007,07,15,06,12,18.90
2007,07,15,06,13,18.90
2007,07,15,06,14,18.90
2007,07,15,06,15,18.90
2007,07,15,06,16,18.90
2007,07,15,06,17,19.00
2007,07,15,06,18,19.10
2007,07,15,06,19,19.10
2007,07,15,06,20,19.10
2007,07,15,06,21,19.10
2007,07,15,06,22,19.10
2007,07,15,06,23,19.20
2007,07,15,06,24,19.20
2007,07,15,06,25,19.30
2007,07,15,06,26,19.40
2007,07,15,06,27,19.60
2007,07,15,06,28,19.60
2007,07,15,06,29,19.70
2007,07,15,06,30,19.80
2007,07,15,06,31,19.90
2007,07,15,06,32,19.90
2007,07,15,06,33,20.00
2007,07,15,06,34,20.10
2007,07,15,06,35,20.10
2007,07,15,06,36,20.10
2007,07,15,06,37,20.20
2007,07,15,06,38,20.20
2007,07,15,06,39,20.20
2007,07,15,06,40,20.20
2007,07,15,06,41,20.20
2007,07,15,06,42,20.20
2007,07,15,06,43,20.20
2007,07,15,06,44,20.20
2007,07,15,06,45,20.20
2007,07,15,06,46,20.20
2007,07,15,06,47,20.20
2007,07,15,06,48,20.20
2007,07,15,06,49,20.20
2007,07,15,06,50,20.20
2007,07,15,06,51,20.20
2007,07,15,06,52,20.20
2007,07,15,06,53,20.20
2007,07,15,06,54,20.20
2007,07,15,06,55,20.20
2007,07,15,06,56,20.20
2007,07,15,06,57,20.20
2007,07,15,06,58,20.20
2007,07,15,06,59,20.20
2007,07,15,07,00,20.20
2007,07,15,07,01,20.20
2007,07,15,07,02,20.20
2007,07,15,07,03,20.20
2007,07,15,07,04,20.20
2007,07,15,07,05,20.20
2007,07,15,07,06,20.20
2007,07,15,07,07,20.20
2007,07,15,07,08,20.20
2007,07,15,07,09,20.20
2007,07,15,07,10,20.20
2007,07,15,07,11,20.20
2007,07,15,07,12,20.20
2007,07,15,07,13,20.20
2007,07,15,07,14,20.20
2007,07,15,07,15,20.20
2007,07,15,07,16,20.20
2007,07,15,07,17,20.20
2007,07,15,07,18,20.30
2007,07,15,07,19,20.30
2007,07,15,07,20,20.30
2007,07,15,07,21,20.30
2007,07,15,07,22,20.40
2007,07,15,07,23,20.40
2007,07,15,07,24,20.40
2007,07,15,07,25,20.40
2007,07,15,07,26,20.50
2007,07,15,07,27,20.50
2007,07,15,07,28,20.50
2007,07,15,07,29,20.50
2007,07,15,07,30,20.60
2007,07,15,07,31,20.60
2007,07,15,07,32,20.60
2007,07,15,07,33,20.60
2007,07,15,07,34,20.70
2007,07,15,07,35,20.70
2007,07,15,07,36,20.70
2007,07,15,07,37,20.70
2007,07,15,07,38,20.70
2007,07,15,07,39,20.70
2007,07,15,07,40,20.80
2007,07,15,07,41,20.80
2007,07,15,07,42,20.80
2007,07,15,07,43,20.90
2007,07,15,07,44,20.90
2007,07,15,07,45,20.90
2007,07,15,07,46,21.00
2007,07,15,07,47,21.00
2007,07,15,07,48,21.00
2007,07,15,07,49,21.00
2007,07,15,07,50,21.10
2007,07,15,07,51,21.10
2007,07,15,07,52,21.10
2007,07,15,07,53,21.10
2007,07,15,07,54,21.20
2007,07,15,07,55,21.20
2007,07,15,07,56,21.20
2007,07,15,07,57,21.20
2007,07,15,07,58,21.20
2007,07,15,07,59,21.20
2007,07,15,08,00,21.20
2007,07,15,08,01,21.20
2007,07,15,08,02,21.20
2007,07,15,08,03,21.20
2007,07,15,08,04,21.20
2007,07,15,08,05,21.20
2007,07,15,08,06,21.20
2007,07,15,08,07,21.20
2007,07,15,08,08,21.20
2007,07,15,08,09,21.20
2007,07,15,08,10,21.20
2007,07,15,08,11,21.20
2007,07,15,08,12,21.20
2007,07,15,08,13,21.20
2007,07,15,08,14,21.20
2007,07,15,08,15,21.20
2007,07,15,08,16,21.20
2007,07,15,08,17,21.20
2007,07,15,08,18,21.20
2007,07,15,08,19,21.20
2007,07,15,08,20,21.30
2007,07,15,08,21,21.30
2007,07,15,08,22,21.30
2007,07,15,08,23,21.30
2007,07,15,08,24,21.30
2007,07,15,08,25,21.30
2007,07,15,08,26,21.30
2007,07,15,08,27,21.30
2007,07,15,08,28,21.30
2007,07,15,08,29,21.30
2007,07,15,08,30,21.30
2007,07,15,08,31,21.30
2007,07,15,08,32,21.30
2007,07,15,08,33,21.30
2007,07,15,08,34,21.40
2007,07,15,08,35,21.40
2007,07,15,08,36,21.50
2007,07,15,08,37,21.60
2007,07,15,08,38,21.60
2007,07,15,08,39,21.70
2007,07,15,08,40,21.70
2007,07,15,08,41,21.80
2007,07,15,08,42,21.80
2007,07,15,08,43,21.80
2007,07,15,08,44,21.80
2007,07,15,08,45,21.90
2007,07,15,08,46,21.90
2007,07,15,08,47,22.00
2007,07,15,08,48,22.00
2007,07,15,08,49,22.10
2007,07,15,08,50,22.10
2007,07,15,08,51,22.20
2007,07,15,08,52,22.20
2007,07,15,08,53,22.30
2007,07,15,08,54,22.30
2007,07,15,08,55,22.30
2007,07,15,08,56,22.40
2007,07,15,08,57,22.40
2007,07,15,08,58,22.40
2007,07,15,08,59,22.40
2007,07,15,09,00,22.40
2007,07,15,09,01,22.40
2007,07,15,09,02,22.30
2007,07,15,09,03,22.40
2007,07,15,09,04,22.40
2007,07,15,09,05,22.40
2007,07,15,09,06,22.50
2007,07,15,09,07,22.60
2007,07,15,09,08,22.60
2007,07,15,09,09,22.80
2007,07,15,09,10,22.80
2007,07,15,09,11,22.90
2007,07,15,09,12,22.90
2007,07,15,09,13,22.80
2007,07,15,09,14,22.80
2007,07,15,09,15,22.80
2007,07,15,09,16,22.80
2007,07,15,09,17,22.80
2007,07,15,09,18,22.70
2007,07,15,09,19,22.70
2007,07,15,09,20,22.80
2007,07,15,09,21,22.80
2007,07,15,09,22,22.80
2007,07,15,09,23,22.80
2007,07,15,09,24,22.90
2007,07,15,09,25,22.90
2007,07,15,09,26,22.90
2007,07,15,09,27,22.90
2007,07,15,09,28,23.00
2007,07,15,09,29,23.00
2007,07,15,09,30,23.00
2007,07,15,09,31,22.90
2007,07,15,09,32,22.90
2007,07,15,09,33,22.90
2007,07,15,09,34,22.90
2007,07,15,09,35,22.90
2007,07,15,09,36,22.90
2007,07,15,09,37,22.90
2007,07,15,09,38,22.90
2007,07,15,09,39,23.00
2007,07,15,09,40,23.10
2007,07,15,09,41,23.10
2007,07,15,09,42,23.10
2007,07,15,09,43,23.00
2007,07,15,09,44,23.00
2007,07,15,09,45,23.10
2007,07,15,09,46,23.10
2007,07,15,09,47,23.10
2007,07,15,09,48,23.10
2007,07,15,09,49,23.10
2007,07,15,09,50,23.10
2007,07,15,09,51,23.20
2007,07,15,09,52,23.20
2007,07,15,09,53,23.20
2007,07,15,09,54,23.00
2007,07,15,09,55,23.00
2007,07,15,09,56,23.10
2007,07,15,09,57,22.90
2007,07,15,09,58,22.60
2007,07,15,09,59,22.30
2007,07,15,10,00,21.60
2007,07,15,10,01,21.20
2007,07,15,10,02,21.10
2007,07,15,10,03,21.00
2007,07,15,10,04,20.80
2007,07,15,10,05,20.70
2007,07,15,10,06,20.80
2007,07,15,10,07,20.50
2007,07,15,10,08,20.30
2007,07,15,10,09,20.20
2007,07,15,10,10,20.20
2007,07,15,10,11,20.20
2007,07,15,10,12,20.20
2007,07,15,10,13,20.20
2007,07,15,10,14,20.30
2007,07,15,10,15,20.30
2007,07,15,10,16,20.40
2007,07,15,10,17,20.60
2007,07,15,10,18,20.30
2007,07,15,10,19,20.00
2007,07,15,10,20,19.60
2007,07,15,10,21,19.30
2007,07,15,10,22,19.10
2007,07,15,10,23,19.00
2007,07,15,10,24,18.90
2007,07,15,10,25,18.90
2007,07,15,10,26,18.90
2007,07,15,10,27,18.90
2007,07,15,10,28,19.00
2007,07,15,10,29,19.10
2007,07,15,10,30,19.10
2007,07,15,10,31,19.10
2007,07,15,10,32,19.10
2007,07,15,10,33,19.10
2007,07,15,10,34,19.10
2007,07,15,10,35,18.90
2007,07,15,10,36,18.70
2007,07,15,10,37,18.60
2007,07,15,10,38,18.60
2007,07,15,10,39,18.50
2007,07,15,10,40,18.70
2007,07,15,10,41,18.90
2007,07,15,10,42,19.10
2007,07,15,10,43,19.30
2007,07,15,10,44,19.40
2007,07,15,10,45,19.60
2007,07,15,10,46,19.70
2007,07,15,10,47,19.90
2007,07,15,10,48,20.10
2007,07,15,10,49,20.20
2007,07,15,10,50,20.10
2007,07,15,10,51,19.90
2007,07,15,10,52,19.70
2007,07,15,10,53,19.70
2007,07,15,10,54,19.90
2007,07,15,10,55,19.90
2007,07,15,10,56,20.00
2007,07,15,10,57,20.10
2007,07,15,10,58,20.20
2007,07,15,10,59,20.20
2007,07,15,11,00,20.40
2007,07,15,11,01,20.50
2007,07,15,11,02,20.50
2007,07,15,11,03,20.70
2007,07,15,11,04,20.90
2007,07,15,11,05,20.90
2007,07,15,11,06,20.80
2007,07,15,11,07,20.60
2007,07,15,11,08,20.30
2007,07,15,11,09,20.10
2007,07,15,11,10,19.90
2007,07,15,11,11,19.90
2007,07,15,11,12,19.90
2007,07,15,11,13,19.90
2007,07,15,11,14,20.00
2007,07,15,11,15,19.90
2007,07,15,11,16,19.90
2007,07,15,11,17,19.90
2007,07,15,11,18,19.90
2007,07,15,11,19,19.80
2007,07,15,11,20,19.70
2007,07,15,11,21,19.50
2007,07,15,11,22,19.20
2007,07,15,11,23,19.10
2007,07,15,11,24,19.00
2007,07,15,11,25,18.80
2007,07,15,11,26,18.70
2007,07,15,11,27,18.80
2007,07,15,11,28,18.80
2007,07,15,11,29,18.80
2007,07,15,11,30,18.90
2007,07,15,11,31,19.00
2007,07,15,11,32,19.10
2007,07,15,11,33,19.10
2007,07,15,11,34,19.10
2007,07,15,11,35,19.10
2007,07,15,11,36,19.10
2007,07,15,11,37,19.20
2007,07,15,11,38,19.30
2007,07,15,11,39,19.30
2007,07,15,11,40,19.30
2007,07,15,11,41,19.50
2007,07,15,11,42,19.60
2007,07,15,11,43,19.60
2007,07,15,11,44,19.60
2007,07,15,11,45,19.60
2007,07,15,11,46,19.60
2007,07,15,11,47,19.60
2007,07,15,11,48,19.60
2007,07,15,11,49,19.50
2007,07,15,11,50,19.50
2007,07,15,11,51,19.60
2007,07,15,11,52,19.80
2007,07,15,11,53,20.00
2007,07,15,11,54,20.10
2007,07,15,11,55,20.20
2007,07,15,11,56,20.20
2007,07,15,11,57,20.40
2007,07,15,11,58,20.70
2007,07,15,11,59,20.80
2007,07,15,12,00,20.70
2007,07,15,12,01,20.60
2007,07,15,12,02,20.50
2007,07,15,12,03,20.40
2007,07,15,12,04,20.40
2007,07,15,12,05,20.50
2007,07,15,12,06,20.50
2007,07,15,12,07,20.50
2007,07,15,12,08,20.60
2007,07,15,12,09,20.60
2007,07,15,12,10,20.80
2007,07,15,12,11,20.90
2007,07,15,12,12,20.90
2007,07,15,12,13,21.00
2007,07,15,12,14,21.10
2007,07,15,12,15,21.20
2007,07,15,12,16,21.40
2007,07,15,12,17,21.60
2007,07,15,12,18,21.60
2007,07,15,12,19,21.80
2007,07,15,12,20,22.10
2007,07,15,12,21,22.30
2007,07,15,12,22,22.60
2007,07,15,12,23,22.70
2007,07,15,12,24,22.90
2007,07,15,12,25,22.90
2007,07,15,12,26,23.10
2007,07,15,12,27,23.20
2007,07,15,12,28,23.40
2007,07,15,12,29,23.50
2007,07,15,12,30,23.60
2007,07,15,12,31,23.70
2007,07,15,12,32,23.70
2007,07,15,12,33,23.70
2007,07,15,12,34,24.10
2007,07,15,12,35,24.10
2007,07,15,12,36,24.10
2007,07,15,12,37,24.10
2007,07,15,12,38,24.10
2007,07,15,12,39,24.10
2007,07,15,12,40,24.10
2007,07,15,12,41,24.10
2007,07,15,12,42,24.10
2007,07,15,12,43,24.10
2007,07,15,12,44,24.10
2007,07,15,12,45,24.10
2007,07,15,12,46,24.10
2007,07,15,12,47,23.90
2007,07,15,12,48,23.90
2007,07,15,12,49,23.80
2007,07,15,12,50,23.80
2007,07,15,12,51,23.60
2007,07,15,12,52,23.30
2007,07,15,12,53,23.30
2007,07,15,12,54,23.30
2007,07,15,12,55,23.30
2007,07,15,12,56,23.30
2007,07,15,12,57,23.20
2007,07,15,12,58,23.10
2007,07,15,12,59,23.00
2007,07,15,13,00,22.90
2007,07,15,13,01,23.00
2007,07,15,13,02,23.10
2007,07,15,13,03,23.20
2007,07,15,13,04,23.30
2007,07,15,13,05,23.40
2007,07,15,13,06,23.30
2007,07,15,13,07,23.30
2007,07,15,13,08,23.40
2007,07,15,13,09,23.40
2007,07,15,13,10,23.40
2007,07,15,13,11,23.50
2007,07,15,13,12,23.60
2007,07,15,13,13,23.50
2007,07,15,13,14,23.50
2007,07,15,13,15,23.60
2007,07,15,13,16,23.70
2007,07,15,13,17,23.70
2007,07,15,13,18,23.70
2007,07,15,13,19,23.70
2007,07,15,13,20,23.70
2007,07,15,13,21,23.70
2007,07,15,13,22,23.80
2007,07,15,13,23,23.90
2007,07,15,13,24,23.90
2007,07,15,13,25,23.70
2007,07,15,13,26,23.70
2007,07,15,13,27,23.80
2007,07,15,13,28,23.80
2007,07,15,13,29,23.80
2007,07,15,13,30,23.80
2007,07,15,13,31,23.80
2007,07,15,13,32,23.90
2007,07,15,13,33,23.80
2007,07,15,13,34,23.70
2007,07,15,13,35,23.60
2007,07,15,13,36,23.60
2007,07,15,13,37,23.50
2007,07,15,13,38,23.40
2007,07,15,13,39,23.30
2007,07,15,13,40,23.30
2007,07,15,13,41,23.30
2007,07,15,13,42,23.20
2007,07,15,13,43,23.10
2007,07,15,13,44,22.90
2007,07,15,13,45,22.90
2007,07,15,13,46,23.10
2007,07,15,13,47,23.20
2007,07,15,13,48,23.20
2007,07,15,13,49,23.20
2007,07,15,13,50,23.30
2007,07,15,13,51,23.50
2007,07,15,13,52,23.70
2007,07,15,13,53,23.70
2007,07,15,13,54,23.80
2007,07,15,13,55,23.80
2007,07,15,13,56,23.80
2007,07,15,13,57,23.80
2007,07,15,13,58,23.70
2007,07,15,13,59,23.60
2007,07,15,14,00,23.60
2007,07,15,14,01,23.50
2007,07,15,14,02,23.40
2007,07,15,14,03,23.30
2007,07,15,14,04,23.30
2007,07,15,14,05,23.20
2007,07,15,14,06,23.20
2007,07,15,14,07,23.30
2007,07,15,14,08,23.30
2007,07,15,14,09,23.40
2007,07,15,14,10,23.40
2007,07,15,14,11,23.30
2007,07,15,14,12,23.20
2007,07,15,14,13,23.20
2007,07,15,14,14,23.20
2007,07,15,14,15,23.10
2007,07,15,14,16,23.10
2007,07,15,14,17,23.10
2007,07,15,14,18,23.10
2007,07,15,14,19,23.20
2007,07,15,14,20,23.20
2007,07,15,14,21,23.30
2007,07,15,14,22,23.30
2007,07,15,14,23,23.30
2007,07,15,14,24,23.30
2007,07,15,14,25,23.30
2007,07,15,14,26,23.20
2007,07,15,14,27,23.20
2007,07,15,14,28,23.20
2007,07,15,14,29,23.20
2007,07,15,14,30,23.20
2007,07,15,14,31,23.20
2007,07,15,14,32,23.10
2007,07,15,14,33,23.00
2007,07,15,14,34,22.90
2007,07,15,14,35,22.90
2007,07,15,14,36,22.80
2007,07,15,14,37,22.70
2007,07,15,14,38,22.70
2007,07,15,14,39,22.70
2007,07,15,14,40,22.70
2007,07,15,14,41,22.70
2007,07,15,14,42,22.70
2007,07,15,14,43,22.80
2007,07,15,14,44,22.80
2007,07,15,14,45,22.90
2007,07,15,14,46,22.90
2007,07,15,14,47,22.90
2007,07,15,14,48,22.90
2007,07,15,14,49,22.80
2007,07,15,14,50,22.80
2007,07,15,14,51,22.80
2007,07,15,14,52,22.80
2007,07,15,14,53,22.80
2007,07,15,14,54,22.80
2007,07,15,14,55,22.70
2007,07,15,14,56,22.70
2007,07,15,14,57,22.60
2007,07,15,14,58,22.60
2007,07,15,14,59,22.60
2007,07,15,15,00,22.50
2007,07,15,15,01,22.50
2007,07,15,15,02,22.40
2007,07,15,15,03,22.40
2007,07,15,15,04,22.40
2007,07,15,15,05,22.40
2007,07,15,15,06,22.40
2007,07,15,15,07,22.40
2007,07,15,15,08,22.40
2007,07,15,15,09,22.40
2007,07,15,15,10,22.40
2007,07,15,15,11,22.40
2007,07,15,15,12,22.40
2007,07,15,15,13,22.40
2007,07,15,15,14,22.30
2007,07,15,15,15,22.30
2007,07,15,15,16,22.30
2007,07,15,15,17,22.40
2007,07,15,15,18,22.40
2007,07,15,15,19,22.40
2007,07,15,15,20,22.30
2007,07,15,15,21,22.30
2007,07,15,15,22,22.30
2007,07,15,15,23,22.40
2007,07,15,15,24,22.50
2007,07,15,15,25,22.50
2007,07,15,15,26,22.50
2007,07,15,15,27,22.50
2007,07,15,15,28,22.50
2007,07,15,15,29,22.60
2007,07,15,15,30,22.70
2007,07,15,15,31,22.70
2007,07,15,15,32,22.80
2007,07,15,15,33,22.80
2007,07,15,15,34,22.90
2007,07,15,15,35,22.90
2007,07,15,15,36,22.90
2007,07,15,15,37,23.00
2007,07,15,15,38,23.10
2007,07,15,15,39,23.10
2007,07,15,15,40,23.10
2007,07,15,15,41,23.10
2007,07,15,15,42,23.20
2007,07,15,15,43,23.20
2007,07,15,15,44,23.20
2007,07,15,15,45,23.30
2007,07,15,15,46,23.30
2007,07,15,15,47,23.30
2007,07,15,15,48,23.50
2007,07,15,15,49,23.60
2007,07,15,15,50,23.70
2007,07,15,15,51,23.70
2007,07,15,15,52,23.70
2007,07,15,15,53,23.60
2007,07,15,15,54,23.60
2007,07,15,15,55,23.60
2007,07,15,15,56,23.60
2007,07,15,15,57,23.70
2007,07,15,15,58,23.70
2007,07,15,15,59,23.70
2007,07,15,16,00,23.70
2007,07,15,16,01,23.70
2007,07,15,16,02,23.80
2007,07,15,16,03,23.80
2007,07,15,16,04,23.80
2007,07,15,16,05,23.90
2007,07,15,16,06,23.90
2007,07,15,16,07,23.90
2007,07,15,16,08,23.90
2007,07,15,16,09,23.90
2007,07,15,16,10,23.90
2007,07,15,16,11,23.90
2007,07,15,16,12,23.90
2007,07,15,16,13,23.80
2007,07,15,16,14,23.90
2007,07,15,16,15,23.90
2007,07,15,16,16,23.90
2007,07,15,16,17,24.00
2007,07,15,16,18,24.10
2007,07,15,16,19,24.00
2007,07,15,16,20,23.90
2007,07,15,16,21,23.80
2007,07,15,16,22,23.70
2007,07,15,16,23,23.70
2007,07,15,16,24,23.70
2007,07,15,16,25,23.80
2007,07,15,16,26,23.90
2007,07,15,16,27,23.90
2007,07,15,16,28,24.00
2007,07,15,16,29,24.10
2007,07,15,16,30,24.10
2007,07,15,16,31,24.10
2007,07,15,16,32,24.20
2007,07,15,16,33,24.20
2007,07,15,16,34,24.30
2007,07,15,16,35,24.30
2007,07,15,16,36,24.40
2007,07,15,16,37,24.50
2007,07,15,16,38,24.70
2007,07,15,16,39,24.70
2007,07,15,16,40,24.80
2007,07,15,16,41,24.80
2007,07,15,16,42,24.80
2007,07,15,16,43,24.80
2007,07,15,16,44,24.80
2007,07,15,16,45,24.70
2007,07,15,16,46,24.70
2007,07,15,16,47,24.60
2007,07,15,16,48,24.60
2007,07,15,16,49,24.50
2007,07,15,16,50,24.50
2007,07,15,16,51,24.50
2007,07,15,16,52,24.50
2007,07,15,16,53,24.40
2007,07,15,16,54,24.30
2007,07,15,16,55,24.30
2007,07,15,16,56,24.30
2007,07,15,16,57,24.30
2007,07,15,16,58,24.30
2007,07,15,16,59,24.30
2007,07,15,17,00,24.40
2007,07,15,17,01,24.40
2007,07,15,17,02,24.40
2007,07,15,17,03,24.40
2007,07,15,17,04,24.30
2007,07,15,17,05,24.30
2007,07,15,17,06,24.30
2007,07,15,17,07,24.30
2007,07,15,17,08,24.30
2007,07,15,17,09,24.20
2007,07,15,17,10,24.20
2007,07,15,17,11,24.10
2007,07,15,17,12,24.10
2007,07,15,17,13,24.10
2007,07,15,17,14,24.10
2007,07,15,17,15,24.10
2007,07,15,17,16,24.10
2007,07,15,17,17,24.20
2007,07,15,17,18,24.20
2007,07,15,17,19,24.20